Weather History for Versailles, OH

Change the Weather History Date:

Monday, December 3, 2012

  Actual Average (KDAY) Record (KDAY)
Temperature  
Mean Temperature 58 °F 35 °F  
Max Temperature 64 °F 42 °F 71 °F (1982)
Min Temperature 53 °F 28 °F 0 °F (1929)
Degree Days  
Heating Degree Days 6 30  
Month to date heating degree days 88  
Since 1 July heating degree days 1199  
Cooling Degree Days 0 0  
Month to date cooling degree days 0  
Year to date cooling degree days 891  
Growing Degree Days 8 (Base 50)    
Moisture  
Dew Point 56 °F    
Average Humidity 93    
Maximum Humidity 100    
Minimum Humidity 82    
Precipitation  
Precipitation 0.00 in 0.10 in 1.58 in (1990)
Month to date precipitation 0.30  
Year to date precipitation 38.23  
Snow  
Snow 0.00 in 0.00 in 2.50 in (1957)
Month to date snowfall 0.2  
Since 1 July snowfall 1.2  
Snow Depth -    
Sea Level Pressure  
Sea Level Pressure 30.08 in    
Wind  
Wind Speed 5 mph (South)    
Max Wind Speed 14 mph    
Max Gust Speed 21 mph    
Visibility 6 miles    
Events Fog    
T = Trace of Precipitation, MM = Missing Value Source: NWS Daily Summary

Daily Weather History Graph

Daily Weather History Graph

Search for Another Location

Airport:

Trip Planner

Search our weather history database for the weather conditions in past years. The results will help you decide how hot, cold, wet, or windy it might be!

Date:

Astronomy

Dec. 03, 2012 Rise Set
Actual Time 7:43 AM EST 5:12 PM EST
Civil Twilight 7:13 AM EST 5:42 PM EST
Nautical Twilight 6:39 AM EST 6:16 PM EST
Astronomical Twilight 6:06 AM EST 6:49 PM EST
Moon 9:58 PM EST (12/3) 11:06 AM EST (12/3)
Length of Visible Light 10h 29m
Length of Day
9h 28m
Waning Gibbous, 78% of the Moon is Illuminated
Dec 3
Waning Gibbous
Dec 6
Last Quarter
Dec 13
New
Dec 20
First Quarter
Dec 28
Full

Hourly Weather History & Observations

Time (EST) Temp. Dew Point Humidity Pressure Visibility Wind Dir Wind Speed Gust Speed Precip Events Conditions
12:15 AM 55.4 °F 55.4 °F 100% 30.12 in 0.2 mi SSW 4.6 mph - N/A Fog Fog
12:35 AM 55.4 °F 55.4 °F 100% 30.12 in 1.0 mi Calm Calm - N/A   Overcast
12:55 AM 55.4 °F 55.4 °F 100% 30.12 in 1.2 mi SW 3.5 mph - N/A   Overcast
1:15 AM 55.4 °F 55.4 °F 100% 30.12 in 0.5 mi SW 4.6 mph - N/A Fog Fog
1:35 AM 55.4 °F 55.4 °F 100% 30.12 in 0.2 mi Calm Calm - N/A Fog Fog
1:55 AM 55.4 °F 55.4 °F 100% 30.12 in 0.2 mi Calm Calm - N/A Fog Fog
2:15 AM 53.6 °F 53.6 °F 100% 30.12 in 0.2 mi South 3.5 mph - N/A Fog Fog
2:35 AM 53.6 °F 53.6 °F 100% 30.11 in 0.2 mi South 3.5 mph - N/A Fog Fog
2:55 AM 53.6 °F 53.6 °F 100% 30.12 in 0.2 mi South 3.5 mph - N/A Fog Fog
3:15 AM 53.6 °F 53.6 °F 100% 30.12 in 0.2 mi Calm Calm - N/A Fog Fog
3:35 AM 53.6 °F 53.6 °F 100% 30.11 in 0.2 mi SSE 3.5 mph - N/A Fog Fog
3:55 AM 55.4 °F 55.4 °F 100% 30.11 in 0.2 mi South 4.6 mph - N/A Fog Fog
4:15 AM 55.4 °F 55.4 °F 100% 30.11 in 0.2 mi South 3.5 mph - N/A Fog Fog
4:35 AM 55.4 °F 55.4 °F 100% 30.12 in 0.2 mi South 4.6 mph - N/A Fog Fog
4:55 AM 55.4 °F 55.4 °F 100% 30.11 in 0.2 mi South 4.6 mph - N/A Fog Fog
5:15 AM 55.4 °F 55.4 °F 100% 30.11 in 0.2 mi South 3.5 mph - N/A Fog Fog
5:35 AM 55.4 °F 55.4 °F 100% 30.12 in 0.2 mi South 3.5 mph - N/A Fog Fog
5:55 AM 55.4 °F 55.4 °F 100% 30.11 in 0.5 mi Calm Calm - N/A Fog Fog
6:15 AM 55.4 °F 55.4 °F 100% 30.11 in 0.8 mi South 5.8 mph - N/A   Overcast
6:35 AM 55.4 °F 55.4 °F 100% 30.12 in 0.8 mi South 4.6 mph - N/A   Overcast
6:55 AM 55.4 °F 55.4 °F 100% 30.12 in 1.2 mi South 5.8 mph - N/A   Overcast
7:15 AM 55.4 °F 55.4 °F 100% 30.12 in 1.2 mi South 3.5 mph - N/A   Overcast
7:35 AM 55.4 °F 55.4 °F 100% 30.12 in 1.5 mi North - - N/A   Overcast
7:55 AM 55.4 °F 55.4 °F 100% 30.12 in 1.5 mi North - - N/A   Overcast
8:15 AM 55.4 °F 55.4 °F 100% 30.12 in 1.0 mi South 4.6 mph - N/A   Overcast
8:35 AM 55.4 °F 55.4 °F 100% 30.12 in 1.0 mi SSE 5.8 mph - N/A   Overcast
8:55 AM 55.4 °F 55.4 °F 100% 30.12 in 1.0 mi South 6.9 mph - N/A   Overcast
9:15 AM 55.4 °F 55.4 °F 100% 30.12 in 1.5 mi South 5.8 mph - N/A   Overcast
9:35 AM 57.2 °F 57.2 °F 100% 30.12 in 2.5 mi North - - N/A   Overcast
10:15 AM 57.2 °F 57.2 °F 100% 30.12 in 3.0 mi South 8.1 mph - N/A   Overcast
10:35 AM 59.0 °F 59.0 °F 100% 30.12 in 5.0 mi South 5.8 mph - N/A   Overcast
10:55 AM 59.0 °F 59.0 °F 100% 30.12 in 7.0 mi South 6.9 mph - N/A   Overcast
11:15 AM 59.0 °F 59.0 °F 100% 30.11 in 7.0 mi South 6.9 mph - N/A   Overcast
11:35 AM 59.0 °F 59.0 °F 100% 30.11 in 7.0 mi SSW 6.9 mph - N/A   Overcast
11:55 AM 60.8 °F 60.8 °F 100% 30.10 in 10.0 mi SSW 10.4 mph 16.1 mph N/A   Overcast
12:15 PM 60.8 °F 59.0 °F 94% 30.09 in 10.0 mi SSW 9.2 mph - N/A   Overcast
12:35 PM 60.8 °F 59.0 °F 94% 30.08 in 10.0 mi South 9.2 mph - N/A   Overcast
12:55 PM 60.8 °F 59.0 °F 94% 30.07 in 10.0 mi SSW 10.4 mph - N/A   Overcast
1:15 PM 62.6 °F 59.0 °F 88% 30.07 in 10.0 mi SSW 11.5 mph 18.4 mph N/A   Overcast
1:35 PM 62.6 °F 59.0 °F 88% 30.06 in 10.0 mi SSW 9.2 mph 16.1 mph N/A   Overcast
1:55 PM 62.6 °F 59.0 °F 88% 30.06 in 10.0 mi SSW 10.4 mph 16.1 mph N/A   Overcast
2:15 PM 62.6 °F 59.0 °F 88% 30.05 in 10.0 mi South 9.2 mph - N/A   Overcast
2:35 PM 62.6 °F 59.0 °F 88% 30.04 in 10.0 mi South 6.9 mph - N/A   Overcast
2:55 PM 62.6 °F 60.8 °F 94% 30.04 in 10.0 mi South 5.8 mph - N/A   Overcast
3:15 PM 64.4 °F 60.8 °F 88% 30.04 in 10.0 mi South 5.8 mph - N/A   Overcast
3:35 PM 64.4 °F 60.8 °F 88% 30.04 in 10.0 mi South 4.6 mph - N/A   Overcast
3:55 PM 64.4 °F 59.0 °F 83% 30.04 in 10.0 mi South 9.2 mph - N/A   Overcast
4:15 PM 64.4 °F 59.0 °F 83% 30.04 in 10.0 mi SSW 9.2 mph - N/A   Mostly Cloudy
4:35 PM 64.4 °F 59.0 °F 83% 30.04 in 10.0 mi South 6.9 mph - N/A   Scattered Clouds
4:55 PM 62.6 °F 59.0 °F 88% 30.04 in 10.0 mi South 6.9 mph - N/A   Clear
5:15 PM 62.6 °F 59.0 °F 88% 30.05 in 10.0 mi South 5.8 mph - N/A   Clear
5:35 PM 62.6 °F 57.2 °F 82% 30.05 in 10.0 mi South 8.1 mph - N/A   Clear
5:55 PM 60.8 °F 57.2 °F 88% 30.05 in 10.0 mi South 9.2 mph - N/A   Clear
6:15 PM 60.8 °F 55.4 °F 82% 30.05 in 10.0 mi South 6.9 mph - N/A   Scattered Clouds
6:35 PM 60.8 °F 55.4 °F 82% 30.05 in 10.0 mi South 9.2 mph - N/A   Scattered Clouds
6:55 PM 60.8 °F 55.4 °F 82% 30.05 in 10.0 mi South 8.1 mph - N/A   Clear
7:15 PM 60.8 °F 55.4 °F 82% 30.05 in 10.0 mi South 8.1 mph - N/A   Clear
7:35 PM 60.8 °F 55.4 °F 82% 30.04 in 10.0 mi South 8.1 mph - N/A   Clear
7:55 PM 59.0 °F 55.4 °F 88% 30.04 in 10.0 mi South 11.5 mph - N/A   Clear
8:15 PM 59.0 °F 53.6 °F 82% 30.04 in 10.0 mi South 8.1 mph - N/A   Clear
8:35 PM 59.0 °F 55.4 °F 88% 30.04 in 10.0 mi South 5.8 mph - N/A   Clear
8:55 PM 59.0 °F 53.6 °F 82% 30.04 in 10.0 mi South 5.8 mph - N/A   Clear
9:15 PM 59.0 °F 53.6 °F 82% 30.04 in 10.0 mi South 8.1 mph - N/A   Clear
9:35 PM 59.0 °F 53.6 °F 82% 30.03 in 10.0 mi South 9.2 mph 17.3 mph N/A   Clear
9:55 PM 59.0 °F 53.6 °F 82% 30.04 in 10.0 mi SSW 10.4 mph 16.1 mph N/A   Clear
10:15 PM 59.0 °F 53.6 °F 82% 30.04 in 10.0 mi South 10.4 mph - N/A   Clear
10:35 PM 59.0 °F 53.6 °F 82% 30.04 in 10.0 mi SSW 11.5 mph 17.3 mph N/A   Scattered Clouds
10:55 PM 59.0 °F 53.6 °F 82% 30.04 in 10.0 mi SSW 11.5 mph 17.3 mph N/A   Scattered Clouds
11:15 PM 59.0 °F 53.6 °F 82% 30.05 in 10.0 mi SSW 11.5 mph 19.6 mph N/A   Scattered Clouds
11:35 PM 59.0 °F 53.6 °F 82% 30.05 in 10.0 mi SSW 11.5 mph 19.6 mph N/A   Scattered Clouds
11:55 PM 59.0 °F 53.6 °F 82% 30.05 in 10.0 mi SSW 13.8 mph 20.7 mph N/A   Scattered Clouds